Regional Weather Roundup
Issued by NWS Little Rock, AR

Home | Current Version | Previous Version | Text Only | Print | Product List | Glossary Off
Versions: 1 2 3 4 5 6 7 8 9 10 11 12 13 14 15 16 17 18 19 20 21 22 23 24 25 26 27 28 29 30 31 32 33 34 35 36 37 38 39 40 41 42 43 44 45 46 47 48 49 50

000
ASUS44 KLZK 101605
RWRLZK

WEATHER ROUNDUP FOR ARKANSAS
NATIONAL WEATHER SERVICE LITTLE ROCK AR
1100 AM CDT THU JUL 10 2014

NOTE: "FAIR" INDICATES FEW OR NO CLOUDS BELOW 12,000 FEET WITH NO
SIGNIFICANT WEATHER AND/OR OBSTRUCTIONS TO VISIBILITY.

ARZ001-003-010-029-101700-
NORTHWEST ARKANSAS

CITY           SKY/WX    TMP DP  RH WIND       PRES   REMARKS
FAYETTEVILLE   CLOUDY    76  70  82 NW10      30.12R THUNDER
FORT SMITH     PTSUNNY   83  73  72 VRB5      30.06R HX  89
HARRISON       CLOUDY    75  65  70 SE5       30.14S
BENTONVILLE    CLOUDY    73  68  83 NW6       30.14R
ROGERS         CLOUDY    72  66  81 E3        30.14R
SILOAM SPGS    CLOUDY    68  61  77 NW6       30.17R
HIGHFILL       LGT RAIN  71  69  93 W6        30.14R FOG
SPRINGDALE     CLOUDY    73  68  83 E8        30.13S
$$

ARZ004-005-016-101700-
NORTH CENTRAL ARKANSAS

CITY           SKY/WX    TMP DP  RH WIND       PRES   REMARKS
BATESVILLE     MOSUNNY   82  70  65 CALM      30.11S HX  86
FLIPPIN        CLOUDY    75  64  69 E3        30.12F
MTN HOME       CLOUDY    77  67  71 CALM      30.12S
$$

ARZ040-041-101700-
WEST CENTRAL ARKANSAS

CITY           SKY/WX    TMP DP  RH WIND       PRES   REMARKS
MENA           CLOUDY    81  81 100 CALM      30.11R HX  91
MOUNT IDA      MOSUNNY   83  72  69 VRB3      30.07S HX  88
$$

ARZ009-017-025-026-028-101700-
NORTHEAST ARKANSAS

CITY           SKY/WX    TMP DP  RH WIND       PRES   REMARKS
CORNING        FAIR      79  68  69 N5        30.12S
JONESBORO      MOSUNNY   83  68  60 VRB3      30.11R HX  86
NEWPORT        MOSUNNY   84  72  67 VRB5      30.12R HX  89
WALNUT RIDGE   MOSUNNY   81  70  69 CALM      30.11R
BLYTHEVILLE    MOSUNNY   85  67  54 N3        30.11R HX  87
NW BLYTHEVILLE PTSUNNY   84  68  58 CALM      30.10  HX  87
$$

ARZ022-023-033-042-044-101700-
CENTRAL ARKANSAS

CITY           SKY/WX    TMP DP  RH WIND       PRES   REMARKS
LITTLE ROCK    PTSUNNY   83  71  67 SE8       30.09S HX  87
N LITTLE ROCK  PTSUNNY   83  71  66 S6        30.09S HX  88
JACKSONVILLE   SUNNY     85  70  60 VRB6      30.09S HX  89
SEARCY         MOSUNNY   85  72  65 VRB7      30.11R HX  91
HOT SPRINGS    MOSUNNY   82  71  69 SE6       30.10R HX  86
RUSSELLVILLE   PTSUNNY   83  72  69 CALM      30.09R HX  88
CLINTON        FAIR      82  73  74 CALM      30.11S HX  88
$$

ARZ036-101700-
EAST ARKANSAS

CITY           SKY/WX    TMP DP  RH WIND       PRES   REMARKS
WEST MEMPHIS   SUNNY     84  68  58 NW3       30.09S HX  87
$$

ARZ050-053-066-070-073-101700-
SOUTHWEST ARKANSAS

CITY           SKY/WX    TMP DP  RH WIND       PRES   REMARKS
ARKADELPHIA    FAIR      83  76  79 CALM      30.09S HX  91
CAMDEN         MOSUNNY   82  72  69 S3        30.09S HX  87
TEXARKANA      MOSUNNY   83  73  72 VRB3      30.09S HX  89
EL DORADO      LGT RAIN  75  73  93 SE7       30.11R
DE QUEEN       MOSUNNY   83  74  74 SE6       30.06S HX  89
$$

ARZ056-057-069-101700-
SOUTHEAST ARKANSAS

CITY           SKY/WX    TMP DP  RH WIND       PRES   REMARKS
PINE BLUFF     MOSUNNY   83  70  64 SE5       30.10R HX  87
MONTICELLO     LGT RAIN  82  71  69 E5        30.10S HX  86

$$




USA.gov is the U.S. government's official web portal to all federal, state and local government web resources and services.